TimePDT,TemperatureF,Dew PointF,Humidity,Sea Level PressureIn,VisibilityMPH,Wind Direction,Wind SpeedMPH,Gust SpeedMPH,PrecipitationIn,Events,Conditions,WindDirDegrees,DateUTC
12:15 AM,66.2,42.8,43,30.09,10.0,Calm,Calm,-,N/A,,Clear,0,2012-10-15 07:15:00
12:35 AM,64.4,44.6,49,30.09,10.0,Calm,Calm,-,N/A,,Clear,0,2012-10-15 07:35:00
12:55 AM,64.4,44.6,49,30.08,10.0,Calm,Calm,-,N/A,,Clear,0,2012-10-15 07:55:00
1:15 AM,64.4,44.6,49,30.08,10.0,Calm,Calm,-,N/A,,Clear,0,2012-10-15 08:15:00
1:35 AM,62.6,46.4,55,30.08,10.0,Calm,Calm,-,N/A,,Clear,0,2012-10-15 08:35:00
1:55 AM,60.8,44.6,55,30.08,10.0,WNW,3.5,-,N/A,,Clear,300,2012-10-15 08:55:00
2:15 AM,62.6,44.6,52,30.08,10.0,NW,3.5,-,N/A,,Clear,310,2012-10-15 09:15:00
2:35 AM,62.6,44.6,52,30.07,10.0,WNW,3.5,-,N/A,,Clear,300,2012-10-15 09:35:00
2:55 AM,62.6,44.6,52,30.06,10.0,WNW,3.5,-,N/A,,Clear,290,2012-10-15 09:55:00
3:15 AM,64.4,44.6,49,30.05,10.0,Calm,Calm,-,N/A,,Clear,0,2012-10-15 10:15:00
3:35 AM,64.4,44.6,49,30.05,10.0,Calm,Calm,-,N/A,,Clear,0,2012-10-15 10:35:00
3:55 AM,62.6,44.6,52,30.05,10.0,Calm,Calm,-,N/A,,Clear,0,2012-10-15 10:55:00
4:15 AM,59.0,46.4,63,30.05,10.0,Calm,Calm,-,N/A,,Clear,0,2012-10-15 11:15:00
4:35 AM,64.4,41.0,42,30.05,10.0,North,4.6,-,N/A,,Clear,350,2012-10-15 11:35:00
4:55 AM,64.4,41.0,42,30.05,10.0,NW,5.8,-,N/A,,Clear,310,2012-10-15 11:55:00
5:15 AM,60.8,44.6,55,30.05,10.0,Calm,Calm,-,N/A,,Clear,0,2012-10-15 12:15:00
5:35 AM,59.0,44.6,59,30.05,10.0,Calm,Calm,-,N/A,,Clear,0,2012-10-15 12:35:00
5:55 AM,57.2,44.6,63,30.05,10.0,NW,3.5,-,N/A,,Clear,320,2012-10-15 12:55:00
6:15 AM,59.0,44.6,59,30.05,10.0,West,3.5,-,N/A,,Clear,270,2012-10-15 13:15:00
6:35 AM,59.0,44.6,59,30.06,10.0,Calm,Calm,-,N/A,,Clear,0,2012-10-15 13:35:00
6:55 AM,59.0,44.6,59,30.06,10.0,Calm,Calm,-,N/A,,Clear,0,2012-10-15 13:55:00
7:15 AM,60.8,44.6,55,30.06,10.0,Calm,Calm,-,N/A,,Clear,0,2012-10-15 14:15:00
7:35 AM,62.6,44.6,52,30.06,10.0,Calm,Calm,-,N/A,,Clear,0,2012-10-15 14:35:00
7:55 AM,62.6,46.4,55,30.06,10.0,Calm,Calm,-,N/A,,Clear,0,2012-10-15 14:55:00
8:15 AM,62.6,46.4,55,30.07,10.0,Calm,Calm,-,N/A,,Clear,0,2012-10-15 15:15:00
8:55 AM,64.4,46.4,52,30.08,10.0,WNW,3.5,-,N/A,,Clear,290,2012-10-15 15:55:00
9:15 AM,66.2,44.6,46,30.08,10.0,West,6.9,-,N/A,,Clear,280,2012-10-15 16:15:00
9:35 AM,71.6,42.8,35,30.08,10.0,NW,12.7,-,N/A,,Clear,320,2012-10-15 16:35:00
9:55 AM,71.6,41.0,33,30.08,10.0,NW,9.2,-,N/A,,Clear,310,2012-10-15 16:55:00
10:15 AM,73.4,41.0,31,30.08,10.0,NW,6.9,-,N/A,,Clear,310,2012-10-15 17:15:00
10:35 AM,73.4,42.8,33,30.07,10.0,ENE,4.6,-,N/A,,Clear,70,2012-10-15 17:35:00
10:55 AM,73.4,46.4,38,30.07,10.0,Calm,Calm,-,N/A,,Clear,0,2012-10-15 17:55:00
11:15 AM,75.2,46.4,36,30.06,10.0,Calm,Calm,-,N/A,,Clear,0,2012-10-15 18:15:00
11:35 AM,77.0,42.8,29,30.06,10.0,WSW,6.9,-,N/A,,Clear,250,2012-10-15 18:35:00
11:55 AM,77.0,42.8,29,30.05,10.0,SE,5.8,-,N/A,,Clear,130,2012-10-15 18:55:00
12:15 PM,77.0,44.6,32,30.05,10.0,North,3.5,-,N/A,,Clear,10,2012-10-15 19:15:00
12:35 PM,77.0,44.6,32,30.04,10.0,NNE,6.9,-,N/A,,Clear,30,2012-10-15 19:35:00
12:55 PM,80.6,42.8,26,30.03,10.0,NW,10.4,-,N/A,,Clear,310,2012-10-15 19:55:00
1:15 PM,80.6,42.8,26,30.02,10.0,NE,4.6,-,N/A,,Clear,50,2012-10-15 20:15:00
1:35 PM,80.6,44.6,28,30.01,10.0,NNE,4.6,-,N/A,,Clear,20,2012-10-15 20:35:00
1:55 PM,80.6,44.6,28,30.00,10.0,NE,4.6,-,N/A,,Clear,40,2012-10-15 20:55:00
2:15 PM,80.6,42.8,26,30.00,10.0,East,3.5,-,N/A,,Clear,80,2012-10-15 21:15:00
2:35 PM,80.6,42.8,26,29.99,10.0,Calm,Calm,-,N/A,,Clear,0,2012-10-15 21:35:00
2:55 PM,82.4,41.0,23,29.98,10.0,NNE,4.6,-,N/A,,Clear,30,2012-10-15 21:55:00
3:15 PM,82.4,41.0,23,29.98,10.0,Calm,Calm,-,N/A,,Clear,0,2012-10-15 22:15:00
3:35 PM,82.4,41.0,23,29.97,10.0,ESE,3.5,-,N/A,,Clear,110,2012-10-15 22:35:00
3:55 PM,82.4,41.0,23,29.97,10.0,Calm,Calm,-,N/A,,Clear,0,2012-10-15 22:55:00
4:15 PM,82.4,41.0,23,29.96,10.0,NE,3.5,-,N/A,,Clear,40,2012-10-15 23:15:00
4:35 PM,82.4,41.0,23,29.96,10.0,NE,5.8,-,N/A,,Clear,40,2012-10-15 23:35:00
4:55 PM,80.6,42.8,26,29.96,10.0,NNE,5.8,-,N/A,,Clear,20,2012-10-15 23:55:00
5:15 PM,80.6,44.6,28,29.95,10.0,NE,6.9,-,N/A,,Clear,40,2012-10-16 00:15:00
5:35 PM,77.0,46.4,34,29.95,10.0,NE,5.8,-,N/A,,Clear,40,2012-10-16 00:35:00
5:55 PM,77.0,46.4,34,29.95,10.0,NNE,5.8,-,N/A,,Clear,30,2012-10-16 00:55:00
6:15 PM,77.0,46.4,34,29.94,10.0,NNE,5.8,-,N/A,,Clear,30,2012-10-16 01:15:00
6:35 PM,75.2,46.4,36,29.94,10.0,NE,5.8,-,N/A,,Clear,40,2012-10-16 01:35:00
6:55 PM,73.4,48.2,41,29.94,10.0,NNE,4.6,-,N/A,,Clear,20,2012-10-16 01:55:00
7:15 PM,71.6,48.2,43,29.94,10.0,North,3.5,-,N/A,,Clear,10,2012-10-16 02:15:00
7:35 PM,71.6,48.2,43,29.95,10.0,North,3.5,-,N/A,,Clear,350,2012-10-16 02:35:00
7:55 PM,69.8,46.4,43,29.95,10.0,North,3.5,-,N/A,,Clear,350,2012-10-16 02:55:00
8:15 PM,69.8,46.4,43,29.95,10.0,North,4.6,-,N/A,,Clear,360,2012-10-16 03:15:00
8:35 PM,69.8,46.4,43,29.95,10.0,NNW,5.8,-,N/A,,Clear,340,2012-10-16 03:35:00
8:55 PM,68.0,46.4,46,29.96,10.0,North,5.8,-,N/A,,Clear,350,2012-10-16 03:55:00
9:15 PM,68.0,46.4,46,29.96,10.0,NW,3.5,-,N/A,,Clear,310,2012-10-16 04:15:00
9:35 PM,68.0,44.6,43,29.97,10.0,WNW,4.6,-,N/A,,Clear,290,2012-10-16 04:35:00
9:55 PM,66.2,46.4,49,29.98,10.0,NW,3.5,-,N/A,,Clear,320,2012-10-16 04:55:00
10:15 PM,66.2,46.4,49,29.97,10.0,NNW,3.5,-,N/A,,Clear,340,2012-10-16 05:15:00
10:35 PM,66.2,44.6,46,29.98,10.0,Calm,Calm,-,N/A,,Clear,0,2012-10-16 05:35:00
10:55 PM,66.2,46.4,49,29.97,10.0,Calm,Calm,-,N/A,,Clear,0,2012-10-16 05:55:00
11:15 PM,64.4,48.2,56,29.97,10.0,Calm,Calm,-,N/A,,Clear,0,2012-10-16 06:15:00
11:35 PM,64.4,48.2,56,29.97,10.0,Calm,Calm,-,N/A,,Clear,0,2012-10-16 06:35:00
11:55 PM,62.6,48.2,59,29.97,10.0,Calm,Calm,-,N/A,,Clear,0,2012-10-16 06:55:00